Location: Cluj-Napoca
(46.7712°N, 23.6236°E)
Time: 12:21:01
(UTC+03:00)

ISS - Pass Details

Date: 07 May 2021
Orbit: 417 x 422 km, 51.6° (Epoch: 15 May)

Event Time Altitude Azimuth Distance (km) Brightness Sun altitude
Exits shadow 04:35:20 - 287° (WNW) 1,719 -0.9 -13.0°
Reaches altitude 10° 04:35:54 10° 290° (WNW) 1,505 -1.2 -12.9°
Maximum altitude 04:39:01 34° 358° (N) 715 -2.2 -12.5°
Drops below altitude 10° 04:42:09 10° 65° (ENE) 1,508 0.4 -12.1°
Sets 04:44:23 0° 75° (ENE) 2,373 1.3 -11.8°
